sat.trackr.live / text

‹ back to catalog

ONEWEB-0145

NORAD 47291 · 2020-100AK

PAYLOAD ACTIVE UNKNOWN

§ Identity

Operator
Country
UK
Launch date
2020-12-18
Launch site
VOSTO
Launch vehicle
Mass (kg)
RCS (m²)

Purposes: comms

External: N2YO · Heavens-Above · Gunter

§ Orbital elements

Epoch: 2026-09-20T04:13:52.345056Z

Period
109.72 min
Inclination
87.8976°
Eccentricity
0.0001663
Mean motion
13.12442105 rev/d
Perigee alt
1,212.5 km
Apogee alt
1,215.0 km
Semi-major
7,591.9 km
B*
1.2123e-3
RAAN
331.8083°
Arg perigee
97.8683°
Mean anomaly
262.2634°
Rev number
27,722

§ Raw data

ONEWEB-01451 47291U 20100AK  26263.17630029  .00000449  00000+0  12123-2 0  99902 47291  87.8976 331.8083 0001663  97.8683 262.2634 13.12442105277221

JSON: /api/v1/satellites/47291 · /tle

For live sub-satellite position, see the globe view (requires WebGL).

§ Visibility from observer

Set your observer location to see the next 7 days of passes ≥ 10°. The values pass through the URL so the page stays shareable.

No JS? Fill the form by hand. The geolocation button needs JavaScript.